Chicago Executive, IL

9:46 AM CST on December 09, 2019 (GMT -0600)
Chicago Executive

Weather History for KPWK - October, 2019

Change the Weather History Date:

Monday, October 14, 2019

  Actual Average Record
Temperature  
Mean Temperature 46 °F 53 °F  
Max Temperature 55 °F 62 °F 75 °F (2005)
Min Temperature 37 °F 43 °F 33 °F (2002)
Degree Days  
Heating Degree Days 19 13  
Month to date heating degree days 147  
Since 1 July heating degree days 259  
Cooling Degree Days 0 0  
Month to date cooling degree days 11  
Year to date cooling degree days 789  
Moisture  
Dew Point 32 °F    
Average Humidity 61    
Maximum Humidity 80    
Minimum Humidity 41    
Precipitation  
Precipitation 0.00 in 0.09 in 3.27 in (2017)
Month to date precipitation 1.40  
Year to date precipitation 27.09  
Sea Level Pressure  
Sea Level Pressure 30.06 in    
Wind  
Wind Speed 5 mph ()    
Max Wind Speed 12 mph    
Max Gust Speed 20 mph    
Visibility 10.0 miles    
Events      
T = Trace of Precipitation, MM = Missing Value Source: Averaged Metar Reports

Daily Weather History Graph

Daily Weather History Graph

Search for Another Location

Airport or City:

Astronomy

Oct. 14, 2019 Rise Set
Actual Time 7:02 AM CDT 6:11 PM CDT
Civil Twilight 6:34 AM CDT 6:39 PM CDT
Nautical Twilight 6:02 AM CDT 7:12 PM CDT
Astronomical Twilight 5:29 AM CDT 7:44 PM CDT
Moon 7:01 PM CDT (10/14) 7:33 AM CDT (10/14)
Length of Visible Light 12h 05m
Length of Day
11h 08m
Full, 99% of the Moon is Illuminated
Oct 14
Full
Oct 21
Last Quarter
Oct 27
New
Nov 4
First Quarter
Nov 12
Full

Hourly Weather History & Observations

Time (CDT) Temp. Windchill Dew Point Humidity Pressure Visibility Wind Dir Wind Speed Gust Speed Precip Events Conditions
12:52 AM 42.1 °F 39.2 °F 30.9 °F 65% 29.98 in 10.0 mi West 4.6 mph - N/A   Clear
1:52 AM 41.0 °F 39.0 °F 30.0 °F 65% 29.99 in 10.0 mi West 3.5 mph - N/A   Clear
2:52 AM 39.9 °F 36.7 °F 30.9 °F 70% 30.00 in 10.0 mi West 4.6 mph - N/A   Clear
3:52 AM 39.9 °F 35.8 °F 30.9 °F 70% 30.01 in 10.0 mi WSW 5.8 mph - N/A   Clear
4:52 AM 39.0 °F 35.7 °F 30.0 °F 70% 30.02 in 10.0 mi WSW 4.6 mph - N/A   Clear
5:52 AM 37.9 °F 34.4 °F 30.0 °F 73% 30.04 in 10.0 mi West 4.6 mph - N/A   Clear
6:52 AM 37.9 °F 33.5 °F 30.0 °F 73% 30.06 in 10.0 mi WSW 5.8 mph - N/A   Clear
7:52 AM 39.0 °F 34.8 °F 30.9 °F 73% 30.08 in 10.0 mi West 5.8 mph - N/A   Clear
8:52 AM 42.1 °F 37.7 °F 32.0 °F 67% 30.09 in 10.0 mi West 6.9 mph - N/A   Clear
9:52 AM 45.0 °F 39.7 °F 32.0 °F 60% 30.11 in 10.0 mi West 10.4 mph - N/A   Clear
10:52 AM 48.0 °F - 30.0 °F 50% 30.11 in 10.0 mi WSW 10.4 mph - N/A   Clear
11:52 AM 50.0 °F - 30.0 °F 46% 30.10 in 10.0 mi WNW 10.4 mph - N/A   Clear
12:52 PM 52.0 °F - 30.9 °F 45% 30.09 in 10.0 mi NW 11.5 mph 19.6 mph N/A   Clear
1:52 PM 53.1 °F - 30.9 °F 43% 30.08 in 10.0 mi West 6.9 mph 18.4 mph N/A   Clear
2:52 PM 53.1 °F - 30.0 °F 41% 30.08 in 10.0 mi SW 5.8 mph - N/A   Clear
3:52 PM 55.0 °F - 32.0 °F 42% 30.07 in 10.0 mi West 5.8 mph - N/A   Clear
4:52 PM 55.0 °F - 32.0 °F 42% 30.07 in 10.0 mi Variable 5.8 mph - N/A   Clear
5:52 PM 53.1 °F - 33.1 °F 47% 30.07 in 10.0 mi SSW 6.9 mph - N/A   Clear
6:52 PM 50.0 °F - 33.1 °F 52% 30.07 in 10.0 mi South 3.5 mph - N/A   Clear
7:52 PM 45.0 °F - 36.0 °F 71% 30.08 in 10.0 mi Calm Calm - N/A   Clear
8:52 PM 44.1 °F - 36.0 °F 73% 30.07 in 10.0 mi Calm Calm - N/A   Clear
9:52 PM 44.1 °F - 37.0 °F 76% 30.07 in 10.0 mi Calm Calm - N/A   Clear
10:52 PM 43.0 °F - 37.0 °F 80% 30.07 in 10.0 mi Calm Calm - N/A   Clear
11:52 PM 43.0 °F - 36.0 °F 76% 30.06 in 10.0 mi Calm Calm - N/A   Clear